Tracking 31028 objects as of 17-Jul-2025
HD Live streaming from Space Station
objects crossing your sky now

OBJECT P

Track OBJECT P now!
10-day predictions


NORAD ID: 54695
Int'l Code: 2022-167P
Perigee: 490.6 km
Apogee: 500.3 km
Inclination: 97.7 °
Period: 94.4 minutes
Semi major axis: 6866 km
RCS: Unknown
Launch date: December 9, 2022
Source: People's Republic of China (PRC)
Launch site: Yellow Sea Launch Area, China (YSLA)
Your satellite tracking list
Your tracking list is empty




NASA's NSSDC Master Catalog

Two Line Element Set (TLE):
1 54695U 22167P   25198.61563979  .00007860  00000-0  31003-3 0  9999
2 54695  97.6579 351.8987 0007120 210.7072 149.3750 15.25823382144214
Source of the keplerian elements: AFSPC